Location: Bo?a Wola
(50.4192°N, 19.7966°E)
Time: 19:51:25
(UTC+00:00)

Cosmos 1455 Rocket - Pass Details

Date: 19 September 2024
Orbit: 601 x 623 km, 82.5° (Epoch: 13 October)

Event Time Altitude Azimuth Distance (km) Brightness Sun altitude
Exits shadow 00:37:10 25° 8° (N) 1,237 5.0 -32.0°
Drops below altitude 10° 00:39:02 10° 10° (N) 1,970 6.3 -31.8°
Sets 00:41:16 0° 10° (N) 2,883 7.4 -31.6°
